{"data":{"norad_id":68120,"epoch":"2026-09-20T04:40:08.116032Z","epoch_age_seconds":82557,"freshness":"FRESH","line1":"1 68120U 26044V   26263.19453838  .00012825  00000+0  39895-3 0  9997","line2":"2 68120  97.2848 222.1919 0002021  90.3208 269.8266 15.33440284 31399","mean_motion":15.33440284,"eccentricity":0.0002021,"inclination_deg":97.2848,"raan_deg":222.1919,"arg_perigee_deg":90.3208,"mean_anomaly_deg":269.8266,"bstar":0.00039895,"rev_number":3139,"period_min":93.906493459513,"perigee_km":464.17409541307,"apogee_km":466.94031661114,"semimajor_km":6843.6942060121,"source":"CELESTRAK","updated_at":"2026-09-20T09:00:43.789379Z"}}